Location: Newark
(13.8117°N, 3.6025°W)
Time: 14:29:13
(UTC+00:00)

Vanguard 2 - Pass Details

Date: 29 August 2019
Orbit: 554 x 2937 km, 32.9° (Epoch: 17 September)

Event Time Altitude Azimuth Distance (km) Brightness Sun altitude
Rises 15:40:48 0° 310° (NW) 3,919 11.7 39.6°
Reaches altitude 10° 15:43:11 10° 316° (NW) 3,210 11.4 39.0°
Maximum altitude 15:51:21 52° 31° (NNE) 2,096 10.0 37.0°
Drops below altitude 10° 16:04:46 10° 104° (ESE) 5,135 11.3 33.8°
Sets 16:09:39 0° 108° (ESE) 6,424 11.7 32.6°
